www.pogodaiklimat.ru

Погода и климат >> Архив погоды >> Индия >> Machilipatnam


ПОГОДА в Machilipatnam

  • Прогноз погоды в Machilipatnam
  • Монитор погоды в Machilipatnam
  • Климат города

АРХИВ ПОГОДЫ в Machilipatnam

Время (UTC), дата Ветер
(напр.,м/с)
 
Видим.   Явления Облачность Т
(С)
Тd
(С)
f
(%)
Тe
(С)
Тes
(С)
Комфортность P
(гПа)
Po
(гПа)
Тmin
(С)
Tmax
(С)
R
(мм)
R24
(мм)
S
(см)
00 19.02 штиль 0 4000 м мгла ясно +22.0 +21.4 96 +29 +29 очень
душно
1010.9 1010.5
03 19.02 ЮВ 2 4000 м мгла 4/3 600 м
[Sc Ci fib]
+24.2 +21.2 83 +31 +35 очень
душно
1013.9 1013.5 +21.1 +32.4
06 19.02 ЮВ 4 4000 м мгла 8/5 600 м
[Sc Ac trans]
+30.0 +18.9 51 +35 +39 очень
душно
1013.8 1013.5
09 19.02 ЮВ 2 4000 м ясно +30.4 +20.5 55 +37 +49 очень
душно
1010.6 1010.3
12 19.02 ЮВ 3 4000 м мгла ясно +27.2 +22.2 74 +35 +36 очень
душно
1010.6 1010.3 +31.3
15 19.02 ЮВ 2 4000 м мгла ясно +25.0 +21.1 79 +32 +32 очень
душно
1013.4 1013.0
18 19.02 ЮВ 2 4000 м мгла ясно +24.0 +20.6 81 +30 +30 очень
душно
1012.5 1012.1
21 19.02 ЮВ 2 4000 м мгла ясно +23.4 +21.3 88 +31 +31 очень
душно
1011.6 1011.2
00 20.02 С 2 4000 м мгла ясно +21.8 +20.9 95 +28 +28 душно 1011.9 1011.5
03 20.02 штиль 0 4000 м мгла ясно +25.0 +21.4 80 +32 +39 очень
душно
1013.5 1013.1 +21.2 +31.3
06 20.02 В 3 4000 м мгла 6/4 600 м
[Sc Ac trans]
+29.2 +21.5 63 +37 +45 очень
душно
1013.0 1012.7
09 20.02 ЮВ 3 4000 м 3/0
[Ci fib]
+30.0 +20.0 55 +36 +45 очень
душно
1010.3 1010.0
12 20.02 ЮВ 3 10 км 3/0
[Ci fib]
+27.4 +20.8 67 +34 +34 очень
душно
1010.1 1009.8 +30.6
15 20.02 Ю 1 4000 м ясно +24.8 +20.8 78 +31 +31 очень
душно
1011.8 1011.4
18 20.02 штиль 0 4000 м ясно +23.4 +21.3 88 +31 +31 очень
душно
1011.8 1011.4
21 20.02 штиль 0 4000 м ясно +22.2 +19.7 86 +28 +28 душно 1010.1 1009.8
00 21.02 штиль 0 4000 м мгла ясно +21.4 +20.2 93 +27 +27 душно 1010.5 1010.1
03 21.02 СВ 1 4000 м мгла ясно +24.4 +21.7 85 +31 +38 очень
душно
1011.7 1011.3 +20.8 +30.6
06 21.02 В 2 4000 м мгла 4/4 600 м
[Sc]
+28.8 +21.0 63 +36 +47 очень
душно
1011.4 1011.1
09 21.02 ЮВ 2 10 км ясно +31.0 +18.7 48 +36 +48 очень
душно
1009.3 1009.0
12 21.02 Ю 2 10 км ясно +27.6 +19.6 62 +33 +34 очень
душно
1008.8 1008.5 +31.1
15 21.02 Ю 1 4000 м ясно +25.0 +21.1 79 +32 +32 очень
душно
1010.5 1010.1
18 21.02 Ю 1 4000 м ясно +23.8 +21.1 85 +30 +30 очень
душно
1010.7 1010.3
21 21.02 штиль 0 4000 м ясно +22.2 +20.6 91 +29 +29 очень
душно
1009.8 1009.5
00 22.02 С 1 4000 м мгла ясно +21.6 +20.7 95 +27 +27 душно 1009.7 1009.4
03 22.02 С 1 4000 м мгла ясно +24.0 +21.0 83 +30 +37 очень
душно
1012.2 1011.9 +20.6 +31.1
06 22.02 Ю 2 10 км ясно +31.6 +17.2 42 +35 +54 опасность
солнечного
удара
1011.1 1010.8
09 22.02 Ю 2 10 км ясно +31.6 +14.2 35 +33 +46 жарко 1008.8 1008.5
12 22.02 Ю 3 10 км ясно +28.0 +16.8 51 +32 +32 душно 1008.2 1007.9 +32.5
15 22.02 ЮВ 2 4000 м ясно +25.8 +21.0 75 +32 +32 очень
душно
1010.8 1010.4
18 22.02 ЮВ 2 4000 м ясно +24.8 +21.2 80 +31 +31 очень
душно
1011.6 1011.2
21 22.02 штиль 0 4000 м ясно +23.8 +20.7 83 +30 +30 очень
душно
1010.6 1010.2
00 23.02 штиль 0 4000 м мгла ясно +21.6 +19.7 89 +27 +27 душно 1010.8 1010.4
03 23.02 штиль 0 4000 м мгла ясно +25.0 +22.0 83 +32 +40 очень
душно
1013.0 1012.6 +21.6 +32.5
06 23.02 ЮВ 2 10 км 4/4 600 м
[Sc]
+30.6 +19.7 52 +37 +47 очень
душно
1012.7 1012.4
09 23.02 В 2 10 км ясно +30.2 +19.5 53 +36 +49 очень
душно
1010.1 1009.8
12 23.02 ЮВ 2 10 км ясно +28.0 +19.7 61 +34 +34 очень
душно
1009.9 1009.6 +31.1
15 23.02 штиль 0 4000 м ясно +24.6 +21.3 82 +31 +31 очень
душно
1011.8 1011.4
18 23.02 штиль 0 4000 м ясно +22.8 +20.3 86 +30 +30 очень
душно
1012.5 1012.1
21 23.02 штиль 0 4000 м ясно +22.2 +20.0 87 +28 +28 душно 1011.7 1011.3
00 24.02 штиль 0 4000 м мгла ясно +21.0 +19.1 89 +25 +25 комфорт 1012.4 1012.0
03 24.02 СВ 1 4000 м мгла 3/3 600 м
[Sc]
+24.0 +20.3 80 +30 +35 очень
душно
1015.1 1014.7 +20.4 +31.1
06 24.02 ЮВ 4 10 км 3/3 600 м
[Sc]
+30.6 +17.0 44 +34 +42 очень
душно
1015.1 1014.8
09 24.02 ЮВ 3 10 км 3/3 600 м
[Sc]
+30.0 +17.8 48 +34 +41 очень
душно
1012.4 1012.1
12 24.02 ЮВ 2 10 км 3/3 600 м
[Sc]
+27.8 +15.8 48 +31 +31 душно 1012.2 1011.9 +31.0
15 24.02 ЮВ 1 4000 м ясно +24.2 +19.5 75 +29 +29 душно 1013.5 1013.1
18 24.02 штиль 0 4000 м ясно +22.6 +20.1 86 +29 +29 очень
душно
1014.4 1014.0
21 24.02 С 1 4000 м ясно +21.8 +19.6 87 +27 +27 душно 1012.8 1012.4
00 25.02 штиль 0 4000 м мгла ясно +21.4 +19.2 87 +26 +26 душно 1012.9 1012.5
03 25.02 С 2 4000 м мгла {туман} 4/3 600 м
[Sc Ci fib]
+25.0 +20.4 76 +31 +35 очень
душно
1015.2 1014.8 +20.2 +31.0
06 25.02 В 2 10 км 3/3 600 м
[Sc]
+31.4 +17.7 44 +36 +48 очень
душно
1014.7 1014.4
09 25.02 В 2 10 км ясно +32.6 +13.9 32 +34 +45 очень
жарко
1011.6 1011.3
12 25.02 ЮВ 1 10 км ясно +30.6 +13.7 36 +32 +32 жарко 1011.3 1011.0 +33.2
15 25.02 Ю 2 4000 м 1/1 600 м
[Sc]
+24.8 +20.2 76 +31 +31 очень
душно
1012.9 1012.5
18 25.02 штиль 0 4000 м 1/1 600 м
[Sc]
+22.6 +20.1 86 +29 +29 очень
душно
1012.7 1012.3
21 25.02 штиль 0 4000 м 1/1 600 м
[Sc]
+20.0 +18.4 91 +23 +23 комфорт 1011.6 1011.2

 

Местоположение метеостанции Machilipatnam (Andhra Pradesh, Индия): широта 16.20 долгота 81.15 высота над уровнем моря 3 м.

В архиве по умолчанию представлена погода в Machilipatnam за последнюю неделю. Архивные данные за месяц целиком и за предыдущие месяцы, начиная с января 2011 года, Вы можете получить, выбрав интересующий диапазон дат из раскрывающегося списка и нажав кнопку "Ввод!".

Внимание! Время в таблицах - всемирное. Для получения местного времени необходимо прибавить поправку, которая в Machilipatnam равна 5.5 ч.

Смотрите также архив погоды в соседних городах и на ближайших метеорологических станциях:

Погода в Gannavaram (Andhra Pradesh, Индия) (52 км)
Погода в Narsapur (Andhra Pradesh, Индия) (64 км)
Погода в Bapatla (Andhra Pradesh, Индия) (80 км)
Погода в Nandigama (Andhra Pradesh, Индия) (113 км)
Погода в Ongole (Andhra Pradesh, Индия) (140 км)
Погода в Kakinada (Andhra Pradesh, Индия) (142 км)
Погода в Khammam (Telangana, Индия) (158 км)
Погода в Bhadrachalam (Telangana, Индия) (166 км)
Погода в Rentachintala (Andhra Pradesh, Индия) (175 км)
Погода в Kavali (Andhra Pradesh, Индия) (191 км)

Пояснения к столбцам:

Ветер - указаны скорость ветра в м/с - средняя за 10 мин, порывы в срок и между сроками (в фигурных скобках) и направление, откуда дует ветер: С - северный, СВ - северо-восточный, В - восточный, ЮВ - юго-восточный, Ю - южный, ЮЗ - юго-западный, З - западный, СЗ - северо-западный.
Видимость - горизонтальная дальность видимости в метрах или километрах. При видимости от 1 до 10 км при отсутствии осадков обычно наблюдается дымка, при ухудшении видимости до 1 км и менее - туман. В сухую погоду видимость может ухудшаться дымом, пылью или мглою.
Явления - указаны атмосферные явления, наблюдавшиеся в срок или в последний час перед сроком; фигурными скобками обозначены явления, наблюдавшиеся между сроками (за 1-3 часа до срока); квадратными скобками обозначены град или гололедные отложения с указанием их диаметра в мм.
Облачность - указаны через наклонную черту общая и нижняя облачность в баллах и высота нижней границы облаков в метрах; квадратными скобками обозначены формы облаков: Ci - перистые, Cs - перисто-слоистые, Cc - перисто-кучевые, Ac - высококучевые, As - высокослоистые, Sc - слоисто-кучевые, Ns - слоисто-дождевые, Cu - кучевые, Cb - кучево-дождевые. Подробнее классификацию облаков см. в Атласе облаков (PDF).
T - Температура воздуха - температура, измеренная на высоте 2 м над землей.
Td - Температура точки росы - температура, при понижении до которой содержащийся в воздухе водяной пар достигнет насыщения.
f - Относительная влажность воздуха - влажноcть воздуха, измеренная на высоте 2 м над землей.
Te - Эффективная температура - температура, которую ощущает одетый по сезону человек в тени. Характеристика душности погоды. При расчете учитывается влияние влажности воздуха и скорости ветра на теплоощущения человека.
Tes - Эффективная температура на солнце - температура, которую ощущает человек, с поправкой на солнечный нагрев. Характеристика знойности погоды. Зависит от высоты солнца над горизонтом, облачности и скорости ветра. Ночью, в пасмурную погоду, а также при ветре 12 м/с и более поправка равна нулю.
P - Атмосферное давление - приведенное к уровню моря атмосферное давление.
Po - Атмосферное давление - измеренное на уровне метеостанции атмосферное давление.
Tmin - Минимальная температура - минимум температуры воздуха на высоте 2 м над землей.
Tmax - Максимальная температура - максимум температуры воздуха на высоте 2 м над землей.
R - Количество осадков - Количество выпавших осадков за период времени, мм. При наведении курсора мыши на число - период времени, за который выпало указанное количество осадков.
R24 - Количество осадков - Количество выпавших осадков за 24 часа, мм.
S - Снежный покров - Высота снежного покрова, см. При наведении курсора мыши на число - состояние снежного покрова и степень покрытия местности в баллах.